GW4332 Weather Reports


Display with metric or nautical units.
time (UTC)temp
F
wind
direction
speed
MPH
gust
MPH
rain 1hr
in
rain 24hr
in
rain mn
in
humidity
%
barometer
mb
20260509221030 56 33 7.0 11.0 0.00 0.00 0.00 72 1016.9
20260509220030 56 39 7.0 12.0 0.00 0.00 0.00 72 1016.9
20260509215029 56 26 6.0 11.0 0.00 0.00 0.00 73 1017.0
20260509214030 57 32 7.0 12.0 0.00 0.00 0.00 73 1016.9
20260509213030 57 37 8.0 12.0 0.00 0.00 0.00 73 1017.0
20260509212029 57 41 7.0 11.0 0.00 0.00 0.00 73 1017.1
20260509211030 57 34 7.0 11.0 0.00 0.00 0.00 72 1017.1
20260509210030 57 36 7.0 12.0 0.00 0.00 0.00 71 1017.0
20260509205030 58 37 7.0 11.0 0.00 0.00 0.00 71 1017.2
20260509204030 58 34 7.0 12.0 0.00 0.00 0.00 70 1017.1
20260509203030 58 40 6.0 11.0 0.00 0.00 0.00 70 1017.2
20260509202029 58 38 6.0 10.0 0.00 0.00 0.00 69 1017.2
20260509201030 59 33 6.0 11.0 0.00 0.00 0.00 69 1017.1
20260509200030 59 43 6.0 10.0 0.00 0.00 0.00 68 1017.1
20260509195030 59 41 6.0 10.0 0.00 0.00 0.00 68 1017.1
20260509194029 59 28 6.0 12.0 0.00 0.00 0.00 69 1017.1
20260509193029 60 24 7.0 12.0 0.00 0.00 0.00 70 1016.9
20260509192030 60 6 8.0 13.0 0.00 0.00 0.00 69 1016.8
20260509191030 60 357 9.0 13.0 0.00 0.00 0.00 68 1016.7
20260509190030 61 349 9.0 13.0 0.00 0.00 0.00 66 1016.7
20260509185029 61 357 7.0 10.0 0.00 0.00 0.00 65 1016.7
20260509184030 61 23 6.0 10.0 0.00 0.00 0.00 65 1016.7
20260509183030 61 357 7.0 11.0 0.00 0.00 0.00 65 1016.7
20260509182030 62 350 7.0 11.0 0.00 0.00 0.00 63 1016.6
20260509181030 62 1 6.0 11.0 0.00 0.00 0.00 64 1016.7
20260509180030 61 352 5.0 10.0 0.00 0.00 0.00 64 1016.6
20260509175029 61 333 8.0 11.0 0.00 0.00 0.00 65 1016.7
20260509174029 61 333 9.0 12.0 0.00 0.00 0.00 63 1016.7
20260509173030 61 331 10.0 13.0 0.00 0.00 0.00 62 1016.7
20260509172030 62 338 10.0 12.0 0.00 0.00 0.00 62 1016.8
20260509171029 62 339 9.0 13.0 0.00 0.00 0.00 62 1016.7
20260509170030 62 352 9.0 12.0 0.00 0.00 0.00 59 1016.7
20260509165030 62 349 8.0 13.0 0.00 0.00 0.00 61 1016.5
20260509164030 62 339 11.0 14.0 0.00 0.00 0.00 59 1016.5
20260509163029 62 352 10.0 14.0 0.00 0.00 0.00 58 1016.6
20260509162030 62 9 9.0 13.0 0.00 0.00 0.00 60 1016.5
20260509161030 63 0 9.0 14.0 0.00 0.00 0.00 60 1016.5
20260509160029 62 354 9.0 13.0 0.00 0.00 0.00 60 1016.4
20260509155030 61 343 10.0 14.0 0.00 0.00 0.00 60 1016.5
20260509154030 62 2 9.0 13.0 0.00 0.00 0.00 59 1016.5
20260509153030 62 352 9.0 14.0 0.00 0.00 0.00 60 1016.6
20260509152029 61 340 10.0 14.0 0.00 0.00 0.00 61 1016.6
20260509151030 61 343 11.0 14.0 0.00 0.00 0.00 61 1016.7
20260509150030 61 348 9.0 13.0 0.00 0.00 0.00 61 1017.0
20260509145030 61 340 11.0 15.0 0.00 0.00 0.00 60 1017.2
20260509144030 61 332 10.0 14.0 0.00 0.00 0.00 61 1017.3
20260509143029 61 1 7.0 14.0 0.00 0.00 0.00 60 1017.5
20260509142030 60 338 11.0 14.0 0.00 0.00 0.00 61 1017.4
20260509141029 61 331 12.0 15.0 0.00 0.00 0.00 60 1017.5
20260509140030 61 339 11.0 15.0 0.00 0.00 0.00 58 1017.6
20260509135030 61 341 10.0 15.0 0.00 0.00 0.00 58 1017.7
20260509134029 61 0 9.0 14.0 0.00 0.00 0.00 61 1017.7
20260509133030 60 335 11.0 15.0 0.00 0.00 0.00 61 1017.9
20260509132029 60 329 11.0 15.0 0.00 0.00 0.00 60 1018.2
20260509131029 60 338 10.0 13.0 0.00 0.00 0.00 61 1018.2
20260509130030 60 335 9.0 13.0 0.00 0.00 0.00 60 1018.4
20260509125029 60 327 11.0 14.0 0.00 0.00 0.00 61 1018.6
20260509124030 59 323 11.0 14.0 0.00 0.00 0.00 62 1018.6
20260509123030 59 327 11.0 15.0 0.00 0.00 0.00 63 1018.6
20260509122029 60 321 12.0 14.0 0.00 0.00 0.00 61 1018.7
20260509121029 61 346 6.0 13.0 0.00 0.00 0.00 58 1018.7
20260509120030 61 69 4.0 12.0 0.00 0.00 0.00 57 1018.7
20260509115029 61 83 4.0 12.0 0.00 0.00 0.00 56 1018.7
20260509114030 61 55 6.0 12.0 0.00 0.00 0.00 55 1018.7
20260509113030 60 12 6.0 13.0 0.00 0.00 0.00 57 1018.7
20260509112029 60 31 8.0 13.0 0.00 0.00 0.00 57 1018.9
20260509111030 60 5 7.0 13.0 0.00 0.00 0.00 58 1018.9
20260509110029 61 37 4.0 9.0 0.00 0.00 0.00 57 1019.0
20260509105030 60 20 5.0 14.0 0.00 0.00 0.00 58 1019.0
20260509104029 60 59 5.0 12.0 0.00 0.00 0.00 56 1019.2
20260509103030 60 61 4.0 12.0 0.00 0.00 0.00 56 1019.4
20260509102029 61 36 4.0 10.0 0.00 0.00 0.00 55 1019.4
20260509101030 61 64 6.0 12.0 0.00 0.00 0.00 56 1019.5
20260509100030 61 61 2.0 11.0 0.00 0.00 0.00 59 1019.6
20260509095030 60 85 3.0 9.0 0.00 0.00 0.00 61 1019.5
20260509094029 59 56 5.0 10.0 0.00 0.00 0.00 61 1019.5
20260509093030 59 78 2.0 12.0 0.00 0.00 0.00 62 1019.4
20260509092029 58 89 4.0 12.0 0.00 0.00 0.00 63 1019.5
20260509091030 58 109 3.0 14.0 0.00 0.00 0.00 65 1019.5
20260509090029 57 102 5.0 14.0 0.00 0.00 0.00 66 1019.5
20260509085030 57 76 6.0 13.0 0.00 0.00 0.00 67 1019.5
20260509084030 56 103 2.0 13.0 0.00 0.00 0.00 69 1019.4
20260509083029 56 130 1.0 14.0 0.00 0.00 0.00 69 1019.5
20260509082030 56 78 2.0 15.0 0.00 0.00 0.00 71 1019.6
20260509081029 56 101 5.0 16.0 0.00 0.00 0.00 72 1019.8
20260509080030 55 72 1.0 11.0 0.00 0.00 0.00 73 1019.8
20260509075030 55 178 0.0 9.0 0.00 0.00 0.00 74 1019.9
20260509074030 55 223 0.0 9.0 0.00 0.00 0.00 74 1019.9
20260509073029 55 120 3.0 12.0 0.00 0.00 0.00 75 1019.8
20260509072030 55 114 2.0 10.0 0.00 0.00 0.00 76 1019.9
20260509071029 54 118 1.0 9.0 0.00 0.00 0.00 77 1019.9
20260509070030 53 324 1.0 11.0 0.00 0.00 0.00 78 1019.9
20260509065029 53 84 1.0 9.0 0.00 0.00 0.00 79 1019.9
20260509064030 52 279 1.0 6.0 0.00 0.00 0.00 80 1020.0
20260509063029 52 68 0.0 8.0 0.00 0.00 0.00 81 1020.1
20260509062030 51 140 1.0 11.0 0.00 0.00 0.00 82 1020.0
20260509061030 51 107 1.0 7.0 0.00 0.00 0.00 82 1020.0
20260509060030 50 171 1.0 9.0 0.00 0.00 0.00 83 1020.1
20260509055030 50 155 0.0 6.0 0.00 0.00 0.00 83 1019.9
20260509054030 49 93 1.0 8.0 0.00 0.00 0.00 83 1019.8
20260509053030 49 114 2.0 8.0 0.00 0.00 0.00 83 1019.7
20260509052029 49 95 1.0 8.0 0.00 0.00 0.00 83 1019.6
20260509051030 49 113 0.0 8.0 0.00 0.00 0.00 83 1019.7
20260509050030 48 118 1.0 7.0 0.00 0.00 0.00 83 1019.6
20260509045029 48 137 1.0 9.0 0.00 0.00 0.00 83 1019.5
20260509044030 48 109 2.0 8.0 0.00 0.00 0.00 83 1019.5
20260509043030 48 113 2.0 8.0 0.00 0.00 0.00 82 1019.5
20260509042030 48 103 2.0 7.0 0.00 0.00 0.00 82 1019.5
20260509041030 48 109 2.0 7.0 0.00 0.00 0.00 81 1019.4
20260509040029 48 159 2.0 9.0 0.00 0.00 0.00 81 1019.4
20260509035030 49 119 2.0 7.0 0.00 0.00 0.00 80 1019.5
20260509034030 49 104 3.0 7.0 0.00 0.00 0.00 80 1019.5
20260509033029 49 103 3.0 6.0 0.00 0.00 0.00 79 1019.4
20260509032030 49 103 2.0 6.0 0.00 0.00 0.00 79 1019.5
20260509031030 49 105 4.0 8.0 0.00 0.00 0.00 78 1019.5
20260509030029 50 106 4.0 7.0 0.00 0.00 0.00 78 1019.5
20260509025030 50 98 4.0 7.0 0.00 0.00 0.00 78 1019.5
20260509024030 50 98 4.0 7.0 0.00 0.00 0.00 77 1019.5
20260509023030 51 102 3.0 6.0 0.00 0.00 0.00 77 1019.6
20260509022030 51 106 2.0 4.0 0.00 0.00 0.00 77 1019.6
20260509021029 51 112 2.0 4.0 0.00 0.00 0.00 76 1019.5
20260509020030 51 104 1.0 3.0 0.00 0.00 0.00 76 1019.6
20260509015030 51 108 2.0 6.0 0.00 0.00 0.00 75 1019.6
20260509014029 51 121 1.0 6.0 0.00 0.00 0.00 75 1019.6
20260509013030 52 95 1.0 5.0 0.00 0.00 0.00 74 1019.6
20260509012029 52 160 0.0 4.0 0.00 0.00 0.00 74 1019.6
20260509011029 52 136 1.0 7.0 0.00 0.00 0.00 74 1019.6
20260509010030 52 112 1.0 7.0 0.00 0.00 0.00 73 1019.6
20260509005030 53 130 2.0 8.0 0.00 0.00 0.00 73 1019.6
20260509004029 53 98 1.0 8.0 0.00 0.00 0.00 73 1019.5
20260509003030 53 105 2.0 7.0 0.00 0.00 0.00 72 1019.5
20260509002029 53 149 1.0 9.0 0.00 0.00 0.00 72 1019.5
20260509001029 53 182 1.0 8.0 0.00 0.00 0.00 71 1019.4
20260509000030 54 145 2.0 9.0 0.00 0.00 0.00 71 1019.3
20260508235030 54 122 1.0 9.0 0.00 0.00 0.00 71 1019.3
20260508234029 54 125 1.0 9.0 0.00 0.00 0.00 70 1019.2
20260508233030 54 237 1.0 8.0 0.00 0.00 0.00 70 1019.3
20260508232030 55 183 1.0 6.0 0.00 0.00 0.00 69 1019.4
20260508231029 55 123 1.0 6.0 0.00 0.00 0.00 69 1019.4
20260508230030 55 102 2.0 6.0 0.00 0.00 0.00 68 1019.3
20260508225030 56 87 1.0 8.0 0.00 0.00 0.00 68 1019.4
20260508224029 56 121 2.0 7.0 0.00 0.00 0.00 67 1019.5
20260508223030 56 114 3.0 9.0 0.00 0.00 0.00 66 1019.5
20260508222030 57 129 1.0 7.0 0.00 0.00 0.00 66 1019.5